Montgomery, NY

12:15 PM EDT on August 27, 2016 (GMT -0400)
Orange County

Weather History for KMGJ - May, 2014

Change the Weather History Date:

Friday, May 9, 2014

  Actual Average (KPOU) Record (KPOU)
Temperature  
Mean Temperature 58 °F 57 °F  
Max Temperature 63 °F 70 °F 92 °F (1979)
Min Temperature 54 °F 44 °F 27 °F (1950)
Degree Days  
Heating Degree Days 6 9  
Month to date heating degree days 89  
Since 1 July heating degree days 6028  
Cooling Degree Days 0 1  
Month to date cooling degree days 3  
Year to date cooling degree days 8  
Growing Degree Days 8 (Base 50)    
Moisture  
Dew Point 56 °F    
Average Humidity 92    
Maximum Humidity 96    
Minimum Humidity 84    
Precipitation  
Precipitation 0.51 in 0.13 in 1.34 in (1969)
Month to date precipitation 1.14  
Year to date precipitation 14.23  
Sea Level Pressure  
Sea Level Pressure 30.12 in    
Wind  
Wind Speed 4 mph (South)    
Max Wind Speed 10 mph    
Max Gust Speed -    
Visibility 7 miles    
Events Rain    
T = Trace of Precipitation, MM = Missing Value Source: NWS Daily Summary

Daily Weather History Graph

Daily Weather History Graph

Search for Another Location

Airport or City:

Trip Planner

Search our weather history database for the weather conditions in past years. The results will help you decide how hot, cold, wet, or windy it might be!

Date:

Astronomy

May. 09, 2014 Rise Set
Actual Time 5:44 AM EDT 8:03 PM EDT
Civil Twilight 5:13 AM EDT 8:34 PM EDT
Nautical Twilight 4:35 AM EDT 9:12 PM EDT
Astronomical Twilight 3:52 AM EDT 9:55 PM EDT
Moon 2:54 PM EDT (5/9) 2:49 AM EDT (5/9)
Length of Visible Light 15h 21m
Length of Day
14h 19m
Waxing Gibbous, 73% of the Moon is Illuminated
May 9
Waxing Gibbous
May 14
Full
May 21
Last Quarter
May 28
New
Jun 5
First Quarter

Hourly Weather History & Observations

Time (EDT) Temp. Dew Point Humidity Pressure Visibility Wind Dir Wind Speed Gust Speed Precip Events Conditions
12:54 AM 55.0 °F 53.1 °F 93% 30.17 in 4.0 mi Variable 3.5 mph - 0.04 in Rain Rain
1:33 AM 55.0 °F 54.0 °F 96% 30.16 in 2.0 mi ESE 3.5 mph - 0.12 in Rain Rain
1:44 AM 55.0 °F 54.0 °F 96% 30.15 in 3.0 mi SSW 4.6 mph - 0.13 in Rain Light Rain
1:54 AM 55.0 °F 54.0 °F 96% 30.15 in 2.5 mi Variable 3.5 mph - 0.17 in Rain Heavy Rain
2:02 AM 55.0 °F 54.0 °F 96% 30.16 in 4.0 mi Calm Calm - 0.00 in Rain Light Rain
2:54 AM 55.0 °F 53.1 °F 93% 30.14 in 9.0 mi South 3.5 mph - 0.00 in   Overcast
3:54 AM 55.0 °F 53.1 °F 93% 30.14 in 6.0 mi Calm Calm - N/A   Overcast
4:31 AM 54.0 °F 52.0 °F 93% 30.13 in 3.0 mi West 5.8 mph - N/A   Overcast
4:40 AM 54.0 °F 52.0 °F 93% 30.13 in 6.0 mi West 3.5 mph - N/A   Overcast
5:19 AM 54.0 °F 52.0 °F 93% 30.14 in 10.0 mi WNW 3.5 mph - 0.00 in Rain Light Rain
5:52 AM 55.4 °F 53.6 °F 94% 30.11 in 4.0 mi SE 9.2 mph - 0.08 in Rain Rain
5:54 AM 55.0 °F 53.1 °F 93% 30.10 in 4.0 mi SE 10.4 mph - 0.09 in Rain Rain
6:20 AM 55.0 °F 53.1 °F 93% 30.14 in 8.0 mi NNE 9.2 mph - 0.04 in Rain Light Rain
6:54 AM 55.0 °F 53.1 °F 93% 30.14 in 9.0 mi East 5.8 mph - 0.04 in   Overcast
7:18 AM 55.0 °F 54.0 °F 96% 30.16 in 2.0 mi SE 3.5 mph - 0.06 in Rain Rain
7:30 AM 55.0 °F 53.1 °F 93% 30.15 in 2.5 mi SSE 6.9 mph - 0.09 in Rain Rain
7:37 AM 55.0 °F 53.1 °F 93% 30.16 in 3.0 mi Calm Calm - 0.10 in Rain Rain
7:51 AM 55.4 °F 53.6 °F 94% 30.17 in 3.0 mi Variable 3.5 mph - 0.13 in Rain Rain
7:54 AM 55.9 °F 54.0 °F 93% 30.17 in 2.5 mi Calm Calm - 0.14 in Rain Rain
8:11 AM 55.9 °F 54.0 °F 93% 30.16 in 4.0 mi Calm Calm - 0.03 in Rain Light Rain
8:21 AM 55.9 °F 54.0 °F 93% 30.16 in 5.0 mi Calm Calm - 0.03 in Rain Light Rain
8:54 AM 55.9 °F 54.0 °F 93% 30.17 in 6.0 mi NNW 4.6 mph - 0.03 in   Overcast
9:54 AM 57.0 °F 55.0 °F 93% 30.15 in 9.0 mi SSE 5.8 mph - N/A   Overcast
10:41 AM 59.0 °F 55.9 °F 90% 30.15 in 10.0 mi SSW 5.8 mph - N/A   Overcast
10:54 AM 59.0 °F 55.9 °F 90% 30.16 in 10.0 mi SSW 5.8 mph - N/A   Overcast
11:54 AM 59.0 °F 55.9 °F 90% 30.16 in 10.0 mi South 3.5 mph - N/A   Overcast
12:54 PM 61.0 °F 57.0 °F 87% 30.14 in 10.0 mi SSE 5.8 mph - N/A   Overcast
1:49 PM 60.8 °F 57.2 °F 88% 30.13 in 6.0 mi ESE 3.5 mph - N/A   Overcast
1:54 PM 61.0 °F 57.9 °F 90% 30.13 in 7.0 mi SE 4.6 mph - N/A   Overcast
2:46 PM 62.1 °F 57.9 °F 86% 30.10 in 10.0 mi South 5.8 mph - N/A   Overcast
2:54 PM 63.0 °F 57.9 °F 84% 30.10 in 10.0 mi South 5.8 mph - N/A   Overcast
3:54 PM 63.0 °F 57.9 °F 84% 30.08 in 10.0 mi North - - N/A   Overcast
4:54 PM 63.0 °F 57.9 °F 84% 30.07 in 10.0 mi SSE 6.9 mph - N/A   Overcast
5:54 PM 62.1 °F 59.0 °F 90% 30.06 in 8.0 mi SSE 3.5 mph - N/A   Overcast
6:54 PM 61.0 °F 59.0 °F 93% 30.05 in 3.0 mi Calm Calm - N/A   Overcast
7:54 PM 61.0 °F 59.0 °F 93% 30.04 in 4.0 mi Calm Calm - N/A   Overcast
8:54 PM 61.0 °F 59.0 °F 93% 30.04 in 6.0 mi South 3.5 mph - N/A   Overcast
9:22 PM 61.0 °F 59.0 °F 93% 30.04 in 9.0 mi South 4.6 mph - N/A   Overcast
9:54 PM 62.1 °F 59.0 °F 90% 30.04 in 10.0 mi South 3.5 mph - N/A   Overcast
10:32 PM 62.1 °F 59.0 °F 90% 30.04 in 10.0 mi Calm Calm - N/A   Overcast
10:50 PM 60.8 °F 59.0 °F 94% 30.03 in 10.0 mi Calm Calm - N/A   Overcast
10:54 PM 61.0 °F 59.0 °F 93% 30.03 in 10.0 mi Calm Calm - N/A   Overcast
11:54 PM 61.0 °F 59.0 °F 93% 30.00 in 9.0 mi Calm Calm - N/A   Overcast